Location: Unspecified
(40.7945°N, 111.1337°W)
Time: 09:47:00
(UTC-06:00)

CZ-3 Stage 3 - Visible Passes

Search period start: 26 April 2017 00:00
Search period end: 06 May 2017 00:00
Orbit: 397 x 34802 km, 30.7° (Epoch: 24 April)

Date Brightness Start Highest point End Pass type
(mag) Time Alt. Az. Time Alt. Az. Time Alt. Az.
27 Apr 9.0 00:15:20 10° W 02:05:15 47° W 07:36:06 10° W visible
27 Apr 8.1 20:26:47 10° WSW 21:26:40 76° SSE 05:44:37 10° S visible
28 Apr 7.0 16:51:45 10° S 23:32:20 43° ESE 02:00:54 10° SE visible
30 Apr 9.0 00:06:00 10° W 01:54:35 47° W 07:22:14 10° W visible
30 Apr 8.1 20:17:33 10° WSW 21:15:29 76° SSE 05:34:42 10° S visible
01 May 6.9 16:42:23 10° S 23:21:49 43° ESE 01:51:07 10° SE visible
02 May 9.0 23:56:38 10° W 01:43:52 47° W 07:08:21 10° W visible
03 May 8.1 20:08:16 10° WSW 21:04:23 76° SSE 05:24:43 10° S visible
04 May 6.9 16:32:59 10° S 23:11:13 42° ESE 01:41:15 10° SE visible
